Estació meteorològica de Bellmunt (Osona, Osona)

Consulta les dades en temps real de l'estació meteorològica de Bellmunt





Hora UTC 03:45
Temperatura 20.0 ºC
Humitat 66.0 %
Pressió 1016.2 hPa
Pluja 0.0 mm
Velocitat vent 0.0 km/h
Direcció vent WSW

Dades diàries 2026-09-01



Hora UTC (hivern +1h; estiu +2h)
Temperatura (ºC) Humitat (%) Pressió (hPa) Velocitat vent (km/h) Precipitació (mm)
Hora UTC Aire Humitat Pressió Vel. Dir. Vel. Max Dir. Intent. màx 5 min.
00:05 19.8 66.0 1017.3 0.0 NE 0.0 0.0
00:10 19.7 66.0 1017.3 3.2 E 3.2 0.0
00:15 19.7 66.0 1017.3 4.8 NE 4.8 0.0
00:20 19.7 66.0 1017.4 0.0 ENE 4.8 0.0
00:25 19.7 66.0 1017.4 0.0 ENE 4.8 0.0
00:30 19.8 66.0 1017.3 3.2 NE 3.2 0.0
00:35 19.7 66.0 1017.3 4.8 NE 6.4 0.0
00:40 19.7 66.0 1017.2 0.0 ENE 6.4 0.0
00:45 19.7 66.0 1017.2 0.0 ESE 6.4 0.0
00:50 19.6 66.0 1017.2 0.0 ESE 1.6 0.0
00:55 19.6 66.0 1017.2 0.0 NE 0.0 0.0
01:00 19.6 66.0 1017.2 0.0 NE 0.0 0.0
01:05 19.5 67.0 1017.2 0.0 NE 0.0 0.0
01:10 19.4 67.0 1017.3 0.0 NE 0.0 0.0
01:15 19.4 67.0 1017.2 0.0 E 0.0 0.0
01:20 19.7 67.0 1017.2 4.8 ENE 4.8 0.0
01:25 19.9 66.0 1017.1 3.2 ENE 6.4 0.0
01:30 20.1 66.0 1017.1 1.6 ENE 6.4 0.0
01:35 20.3 65.0 1017.1 0.0 E 4.8 0.0
01:40 20.3 65.0 1017.1 0.0 E 4.8 0.0
01:45 20.3 64.0 1017.1 0.0 E 0.0 0.0
01:50 20.3 64.0 1017.1 0.0 E 0.0 0.0
01:55 20.1 65.0 1017.1 0.0 E 0.0 0.0
02:00 19.9 66.0 1017.0 0.0 N 0.0 0.0
02:05 19.7 66.0 1017.0 0.0 N 0.0 0.0
02:10 19.7 66.0 1017.1 0.0 N 0.0 0.0
02:15 19.7 67.0 1017.0 0.0 S 0.0 0.0
02:20 19.7 66.0 1017.0 0.0 SSE 0.0 0.0
02:25 19.7 66.0 1016.9 0.0 SSE 0.0 0.0
02:30 19.7 66.0 1016.8 0.0 SE 0.0 0.0
02:35 19.9 66.0 1016.8 0.0 ESE 0.0 0.0
02:40 20.1 66.0 1016.8 0.0 N 0.0 0.0
02:45 20.1 65.0 1016.8 0.0 NNE 0.0 0.0
02:50 20.2 65.0 1016.7 4.8 NE 6.4 0.0
02:55 20.3 65.0 1016.6 0.0 NE 6.4 0.0
03:00 20.4 65.0 1016.6 3.2 E 4.8 0.0
03:05 20.5 65.0 1016.6 4.8 ENE 4.8 0.0
03:10 20.4 65.0 1016.5 1.6 ENE 4.8 0.0
03:15 20.4 65.0 1016.4 0.0 ENE 6.4 0.0
03:20 20.5 66.0 1016.3 0.0 ESE 6.4 0.0
03:25 20.4 65.0 1016.4 3.2 SW 4.8 0.0
03:30 20.2 65.0 1016.5 0.0 SW 4.8 0.0
03:35 20.1 66.0 1016.4 0.0 SW 1.6 0.0
03:40 20.1 66.0 1016.2 0.0 WSW 3.2 0.0
03:45 20.0 66.0 1016.2 0.0 WSW 3.2 0.0
Màxima 20.5 67.0 1017.4 4.8 ENE 6.4 0.0
Mínima 19.4 64.0 1016.2
Total 0.0